Regional Weather Roundup
Issued by NWS

Home | Current Version | Previous Version | Graphics & Text | Print | Product List | Glossary On
Versions: 1 2 3 4 5 6 7 8 9 10 11 12 13 14 15 16 17 18 19 20 21 22 23 24 25 26 27 28 29 30 31 32 33 34 35 36 37 38 39 40 41 42 43 44 45 46 47 48 49 50
000
ASUS45 KABQ 221810
RWRNM
WEATHER ROUNDUP FOR NEW MEXICO
NATIONAL WEATHER SERVICE ALBUQUERQUE NM
1200 PM MDT MON SEP 22 2014

NOTE: "FAIR" MEANS FEW OR NO CLOUDS BELOW 12,000 FEET AGL WITH NO
       SIGNIFICANT WEATHER OR OBSTRUCTIONS TO VISION.

      THIS PRODUCT IS RELEASED AS TWO VERSIONS.  ONE VERSION NEAR
      THE TOP OF THE HOUR CONTAINING PRELIMINARY DATA FROM ALBUQUERQUE
      AND OTHER STATIONS.  A FINAL VERSION WITH ADDITIONAL DATA IS
      ISSUED ABOUT 10 MINUTES AFTER THE HOUR.

NMZ501-503-504-510>518-221900-
NORTHWEST PLATEAU/NORTHCENTRAL MOUNTAINS

CITY           SKY/WX    TMP DP  RH WIND       PRES   REMARKS
FARMINGTON     MOSUNNY   74  55  51 VRB5      30.28F
6HR MIN TEMP:  61; 6HR MAX TEMP:  74; 6HR PCP: TRACE;

LOS ALAMOS     CLOUDY    63  56  77 S10G18    30.42F
SANTA FE       CLOUDY    69  55  60 S14G21    30.37F
6HR MIN TEMP:  60; 6HR MAX TEMP:  70; 6HR PCP: TRACE;

TAOS           PTSUNNY   66  50  55 SW9       30.39F
ANGEL FIRE     CLOUDY    60  50  67 S10       30.47S

$$
NMZ402-403-502-505>509-221900-
WESTCENTRAL MOUNTAINS/SOUTHWEST MOUNTAINS

CITY           SKY/WX    TMP DP  RH WIND       PRES   REMARKS
GALLUP         CLOUDY    62  58  86 W6        30.37R
6HR MIN TEMP:  58; 6HR MAX TEMP:  62; 6HR PCP:  0.26;

GRANTS         MOSUNNY   73  54  49 SE12G21   30.36F
SILVER CITY    PTSUNNY   72  63  73 E8        30.32S

$$
NMZ407-409-411-412-221900-
SOUTHERN DESERTS

CITY           SKY/WX    TMP DP  RH WIND       PRES   REMARKS
LORDSBURG      MOCLDY    73  64  73 MISG      30.23S
DEMING         CLOUDY    73  65  75 E6        30.24F
6HR MIN TEMP:  67; 6HR MAX TEMP:  73;

LAS CRUCES     CLOUDY    72  64  78 SE8       30.26F
T OR C         CLOUDY    73  62  68 CALM      30.26F
6HR MIN TEMP:  67; 6HR MAX TEMP:  73;


$$
NMZ519>523-221900-
CENTRAL VALLEYS/CENTRAL HIGHLANDS

CITY           SKY/WX    TMP DP  RH WIND       PRES   REMARKS
ALBUQUERQUE    PTSUNNY   73  56  54 W6        30.32F
6HR MIN TEMP:  66; 6HR MAX TEMP:  74;

DOUBLE EAGLE   PTSUNNY   72  55  56 CALM      30.35F
MORIARTY ARPT  CLOUDY    66  58  74 SE7       30.39F
6HR MIN TEMP:  58; 6HR MAX TEMP:  66; 6HR PCP:  0.09;

CLINES CORNERS CLOUDY    61  58  90 S10       30.41F
6HR MIN TEMP:  56; 6HR MAX TEMP:  61; 6HR PCP:  0.05;

BELEN          CLOUDY    74  58  57 S3        30.30F
6HR MIN TEMP:  63; 6HR MAX TEMP:  76;

SOCORRO        FAIR      75  60  60 S3        30.28F
6HR MIN TEMP:  63; 6HR MAX TEMP:  75;


$$
NMZ524>526-539-540-221900-
SOUTHCENTRAL MOUNTAINS

CITY           SKY/WX    TMP DP  RH WIND       PRES   REMARKS
RUIDOSO        NOT AVBL

$$
NMZ527>531-221900-
NORTHEAST HIGHLANDS/NORTHEAST PLAINS

CITY           SKY/WX    TMP DP  RH WIND       PRES   REMARKS
LAS VEGAS      CLOUDY    59  57  93 S17       30.41F
6HR MIN TEMP:  56; 6HR MAX TEMP:  59; 6HR PCP:  0.16;

RATON          CLOUDY    66  58  75 S18       30.34F
6HR MIN TEMP:  59; 6HR MAX TEMP:  66; 6HR PCP: TRACE;

CLAYTON        CLOUDY    66  57  72 S21       30.33F
6HR MIN TEMP:  60; 6HR MAX TEMP:  66;


$$
NMZ532>537-221900-
EASTCENTRAL PLAINS

CITY           SKY/WX    TMP DP  RH WIND       PRES   REMARKS
TUCUMCARI      CLOUDY    68  61  78 SE10      30.31F
6HR MIN TEMP:  63; 6HR MAX TEMP:  68;

CANNON AFB     CLOUDY    63  62  97 SE10      30.33F FOG
6HR MIN TEMP:  61; 6HR MAX TEMP:  64;

CLOVIS AIRPORT   N/A     66  61  82 SE14      30.35F

$$
NMZ028-029-538-221900-
SOUTHEAST PLAINS

CITY           SKY/WX    TMP DP  RH WIND       PRES   REMARKS
ROSWELL        HVY RAIN  68  65  90 SE13      30.27F FOG
6HR MIN TEMP:  66; 6HR MAX TEMP:  70; 6HR PCP:  0.02;

CARLSBAD       CLOUDY    72  72 100 S14       30.24F
6HR MIN TEMP:  68; 6HR MAX TEMP:  73;

HOBBS          LGT RAIN  70  68  94 E12       30.30F


$$



USA.gov is the U.S. government's official web portal to all federal, state and local government web resources and services.